SQ9IWE-13 Weather Reports


time (UTC)temp
C
wind
direction
speed
KPH
gust
KPH
rain 1hr
cm
rain 24hr
cm
rain mn
cm
humidity
%
barometer
mb
20260506171000 20 0.0 0.0 0.00 0.00 0.00 66 1005.3
20260506170000 20 0.0 0.0 0.00 0.00 0.00 68 1005.3
20260506165000 20 0.0 0.0 0.00 0.00 0.00 64 1005.3
20260506164000 19 0.0 0.0 0.00 0.00 0.00 67 1005.4
20260506163000 19 0.0 0.0 0.00 0.00 0.00 68 1005.4
20260506162000 19 0.0 0.0 0.00 0.00 0.00 66 1005.5
20260506161000 19 0.0 0.0 0.00 0.00 0.00 63 1005.5
20260506160000 19 0.0 0.0 0.00 0.00 0.00 66 1005.5
20260506155000 20 0.0 0.0 0.00 0.00 0.00 62 1005.8
20260506154001 23 0.0 0.0 0.00 0.00 0.00 47 1005.5
20260506153001 23 0.0 0.0 0.00 0.00 0.00 45 1005.6
20260506152001 24 0.0 0.0 0.00 0.00 0.00 43 1005.7
20260506151001 25 0.0 0.0 0.00 0.00 0.00 43 1005.6
20260506150002 25 0.0 0.0 0.00 0.00 0.00 42 1005.7
20260506145001 25 0.0 0.0 0.00 0.00 0.00 44 1005.8
20260506144001 25 0.0 0.0 0.00 0.00 0.00 43 1005.9
20260506143001 25 0.0 0.0 0.00 0.00 0.00 44 1006.0
20260506142001 25 0.0 0.0 0.00 0.00 0.00 42 1006.0
20260506141001 25 0.0 0.0 0.00 0.00 0.00 42 1006.0
20260506140001 25 0.0 0.0 0.00 0.00 0.00 42 1006.1
20260506135001 25 0.0 0.0 0.00 0.00 0.00 42 1006.2
20260506134001 25 0.0 0.0 0.00 0.00 0.00 43 1006.1
20260506133001 25 0.0 0.0 0.00 0.00 0.00 44 1006.2
20260506132001 23 0.0 0.0 0.00 0.00 0.00 44 266.4
20260506131001 25 0.0 0.0 0.00 0.00 0.00 44 1006.3
20260506130001 25 0.0 0.0 0.00 0.00 0.00 44 1006.4
20260506125001 25 0.0 0.0 0.00 0.00 0.00 45 1006.4
20260506124001 24 0.0 0.0 0.00 0.00 0.00 46 1006.5
20260506123001 25 0.0 0.0 0.00 0.00 0.00 45 1006.6
20260506122001 25 0.0 0.0 0.00 0.00 0.00 45 1006.7
20260506121001 25 0.0 0.0 0.00 0.00 0.00 44 1006.7
20260506120001 25 0.0 0.0 0.00 0.00 0.00 45 1006.5
20260506115001 26 0.0 0.0 0.00 0.00 0.00 42 1006.7
20260506114002 28 0.0 0.0 0.00 0.00 0.00 40 1006.0
20260506113001 27 0.0 0.0 0.00 0.00 0.00 41 1006.7
20260506112001 26 0.0 0.0 0.00 0.00 0.00 42 1006.8
20260506111001 27 0.0 0.0 0.00 0.00 0.00 42 1006.7
20260506110001 27 0.0 0.0 0.00 0.00 0.00 42 1006.7
20260506105001 26 0.0 0.0 0.00 0.00 0.00 43 1006.8
20260506104001 26 0.0 0.0 0.00 0.00 0.00 44 1006.8
20260506103001 26 0.0 0.0 0.00 0.00 0.00 43 1006.8
20260506102000 25 0.0 0.0 0.00 0.00 0.00 48 1007.0
20260506101000 23 0.0 0.0 0.00 0.00 0.00 48 6.0
20260506100000 25 0.0 0.0 0.00 0.00 0.00 48 1006.8
20260506095000 24 0.0 0.0 0.00 0.00 0.00 46 1006.7
20260506094000 25 0.0 0.0 0.00 0.00 0.00 45 1006.7
20260506093000 26 0.0 0.0 0.00 0.00 0.00 44 1006.7
20260506091000 26 0.0 0.0 0.00 0.00 0.00 46 1006.5
20260506090000 25 0.0 0.0 0.00 0.00 0.00 46 1006.5
20260506085000 25 0.0 0.0 0.00 0.00 0.00 46 1006.5
20260506084001 26 0.0 0.0 0.00 0.00 0.00 47 1006.5
20260506083001 25 0.0 0.0 0.00 0.00 0.00 51 1006.5
20260506082001 25 0.0 0.0 0.00 0.00 0.00 47 1006.4
20260506081001 24 0.0 0.0 0.00 0.00 0.00 51 1006.5
20260506073001 22 0.0 0.0 0.00 0.00 0.00 54 1006.2
20260506072001 21 0.0 0.0 0.00 0.00 0.00 55 1006.3
20260506071001 21 0.0 0.0 0.00 0.00 0.00 55 1006.2
20260506062001 20 0.0 0.0 0.00 0.00 0.00 56 1006.1
20260506061001 20 0.0 0.0 0.00 0.00 0.00 55 1006.0
20260506051001 20 0.0 0.0 0.00 0.00 0.00 56 1005.9
20260506045001 19 0.0 0.0 0.00 0.00 0.00 57 1005.8
20260506044001 18 0.0 0.0 0.00 0.00 0.00 58 1005.7
20260506043001 16 0.0 0.0 0.00 0.00 0.00 63 1005.7
20260506042001 17 0.0 0.0 0.00 0.00 0.00 60 1005.8
20260506041001 16 0.0 0.0 0.00 0.00 0.00 63 1005.6
20260506040001 14 0.0 0.0 0.00 0.00 0.00 68 1005.6
20260506035001 15 0.0 0.0 0.00 0.00 0.00 67 1005.6
20260506034001 15 0.0 0.0 0.00 0.00 0.00 66 1005.6
20260506033000 15 0.0 0.0 0.00 0.00 0.00 65 1005.5
20260506032000 15 0.0 0.0 0.00 0.00 0.00 64 1005.5
20260506031000 15 0.0 0.0 0.00 0.00 0.00 64 1005.6
20260506030000 15 0.0 0.0 0.00 0.00 0.00 65 1005.7
20260506025000 15 0.0 0.0 0.00 0.00 0.00 64 1005.6
20260506024000 15 0.0 0.0 0.00 0.00 0.00 64 1005.7
20260506023000 15 0.0 0.0 0.00 0.00 0.00 64 1005.6
20260506022000 15 0.0 0.0 0.00 0.00 0.00 64 1005.6
20260506021000 14 0.0 0.0 0.00 0.00 0.00 65 6.0
20260506020000 14 0.0 0.0 0.00 0.00 0.00 65 1005.5
20260506015000 14 0.0 0.0 0.00 0.00 0.00 64 1005.4
20260506014000 14 0.0 0.0 0.00 0.00 0.00 63 1005.4
20260506013001 15 0.0 0.0 0.00 0.00 0.00 62 1005.4
20260506012001 15 0.0 0.0 0.00 0.00 0.00 60 1005.3
20260506011001 15 0.0 0.0 0.00 0.00 0.00 59 1005.5
20260506010001 15 0.0 0.0 0.00 0.00 0.00 59 1005.6
20260506005001 15 0.0 0.0 0.00 0.00 0.00 58 1005.6
20260506004001 16 0.0 0.0 0.00 0.00 0.00 57 1005.6
20260506003001 15 0.0 0.0 0.00 0.00 0.00 57 1005.5
20260506002001 16 0.0 0.0 0.00 0.00 0.00 57 1005.6
20260506001001 16 0.0 0.0 0.00 0.00 0.00 57 1005.7
20260506000001 16 0.0 0.0 0.00 0.00 0.00 57 1005.7
20260505235001 16 0.0 0.0 0.00 0.00 0.00 56 1005.9
20260505234001 16 0.0 0.0 0.00 0.00 0.00 57 1005.9
20260505233001 15 0.0 0.0 0.00 0.00 0.00 59 1006.0
20260505232001 16 0.0 0.0 0.00 0.00 0.00 58 1006.0
20260505231001 16 0.0 0.0 0.00 0.00 0.00 57 1006.1
20260505230001 16 0.0 0.0 0.00 0.00 0.00 55 1006.1
20260505225001 17 0.0 0.0 0.00 0.00 0.00 53 1006.1
20260505224001 17 0.0 0.0 0.00 0.00 0.00 53 1006.2
20260505223001 17 0.0 0.0 0.00 0.00 0.00 53 1006.2
20260505222001 17 0.0 0.0 0.00 0.00 0.00 54 1006.3
20260505221001 18 0.0 0.0 0.00 0.00 0.00 52 1006.3
20260505220001 18 0.0 0.0 0.00 0.00 0.00 51 1006.4
20260505215001 18 0.0 0.0 0.00 0.00 0.00 51 1006.5
20260505214001 18 0.0 0.0 0.00 0.00 0.00 49 1006.5
20260505213001 18 0.0 0.0 0.00 0.00 0.00 48 1006.5
20260505212001 18 0.0 0.0 0.00 0.00 0.00 47 1006.7
20260505211001 19 0.0 0.0 0.00 0.00 0.00 45 1006.6
20260505210001 19 0.0 0.0 0.00 0.00 0.00 44 1006.6
20260505205000 19 0.0 0.0 0.00 0.00 0.00 45 1006.5
20260505204001 19 0.0 0.0 0.00 0.00 0.00 45 1006.5
20260505203000 19 0.0 0.0 0.00 0.00 0.00 45 1006.6
20260505202000 19 0.0 0.0 0.00 0.00 0.00 45 1006.5
20260505201000 20 0.0 0.0 0.00 0.00 0.00 44 1006.5
20260505200000 20 0.0 0.0 0.00 0.00 0.00 44 1006.5
20260505195000 20 0.0 0.0 0.00 0.00 0.00 43 1006.5
20260505194000 20 0.0 0.0 0.00 0.00 0.00 43 1006.5
20260505193000 20 0.0 0.0 0.00 0.00 0.00 42 1006.6
20260505192000 21 0.0 0.0 0.00 0.00 0.00 41 1006.5
20260505191000 21 0.0 0.0 0.00 0.00 0.00 41 1006.5
20260505190001 21 0.0 0.0 0.00 0.00 0.00 40 65.9
20260505185001 21 0.0 0.0 0.00 0.00 0.00 40 1006.6
20260505184001 22 0.0 0.0 0.00 0.00 0.00 39 1006.4
20260505183001 22 0.0 0.0 0.00 0.00 0.00 38 1006.4
20260505182001 22 0.0 0.0 0.00 0.00 0.00 37 1006.3
20260505181001 22 0.0 0.0 0.00 0.00 0.00 36 1006.2
20260505180001 22 0.0 0.0 0.00 0.00 0.00 35 1006.3
20260505175001 23 0.0 0.0 0.00 0.00 0.00 34 1006.2
20260505174001 23 0.0 0.0 0.00 0.00 0.00 32 1006.2
20260505173001 23 0.0 0.0 0.00 0.00 0.00 31 1006.1
20260505172001 24 0.0 0.0 0.00 0.00 0.00 30 1006.0